Tracking 34085 objects as of 13-May-2026
HD Live streaming from Space Station
objects crossing your sky now

FIREFLY ALPHA R/B

Track FIREFLY ALPHA R/B now!
10-day predictions


NORAD ID: 68128
Int'l Code: 2026-046B
Perigee: 380.5 km
Apogee: 405.0 km
Inclination: 123.1 °
Period: 92.3 minutes
Semi major axis: 6763 km
RCS: Unknown
Launch date: March 12, 2026
Source: United States (US)
Launch site: AIR FORCE WESTERN TEST RANGE (AFWTR)

Note: This is a ROCKET BODY
Your satellite tracking list
Your tracking list is empty




NASA's NSSDC Master Catalog

Two Line Element Set (TLE):
1 68128U 26046B   26132.78646438  .00027802  00000-0  33184-3 0  9994
2 68128 123.0896 128.1003 0018118  93.8329 266.4805 15.60709580  9634
Source of the keplerian elements: AFSPC